Regional Weather Roundup
Issued by NWS

Home | Current Version | Previous Version | Graphics & Text | Print | Product List | Glossary On
Versions: 1 2 3 4 5 6 7 8 9 10 11 12 13 14 15 16 17 18 19 20 21 22 23 24 25 26 27
000
ASUS45 KBOU 260407
RWRCO

WEATHER ROUNDUP FOR COLORADO
NATIONAL WEATHER SERVICE DENVER/BOULDER CO
1000 PM MDT TUE JUL 25 2017

NOTE: "FAIR" INDICATES FEW OR NO CLOUDS BELOW 12000 FEET WITH NO
SIGNIFICANT WEATHER AND/OR OBSTRUCTIONS TO VISIBILITY.

COZ001>005-013-030-031-260500-
...NORTHWEST COLORADO...

CITY           SKY/WX    TMP DP  RH WIND       PRES   REMARKS
CRAIG          HVY RAIN  64  61  90 S7        30.26R FOG
HAYDEN         MOCLDY    63  55  77 CALM      30.28R
MEEKER         CLOUDY    65  56  72 N8        30.27R
RABBIT EARS PA CLOUDY    50  50 100 SW3       30.55S
STEAMBOAT SPGS FAIR      60  57  91 SE3       30.29R
WALDEN         MOCLDY    57  52  82 CALM      30.39R
$$

COZ006>008-011-260500-
...WEST CENTRAL VALLEYS...

CITY           SKY/WX    TMP DP  RH WIND       PRES   REMARKS
GRAND JUNCTION FAIR      70  64  81 E10       30.16R
MONTROSE       LGT RAIN  67  63  87 SW8       30.23F
EAGLE          FAIR      64  61  90 CALM      30.31R
RIFLE          FAIR      72  58  61 S7        30.20R
DELTA          RAIN      69  64  83 CALM      30.22R
NUCLA          CLOUDY    64  57  77 NE6       30.29R
$$

COZ017>023-064>068-260500-
...SOUTHWEST COLORADO...

CITY           SKY/WX    TMP DP  RH WIND       PRES   REMARKS
DURANGO        MOCLDY    66  57  72 CALM      30.30R
CORTEZ         FAIR      64  60  87 N6        30.24S
PAGOSA SPRINGS MOCLDY    67  53  61 E3        30.40R
TELLURIDE      FAIR      57  55  91 E3        30.49F
WOLF CREEK PAS CLOUDY    46  46 100 W7        30.75R VSB<1/4
$$

COZ009-010-012-014-032>034-037-058>063-260500-
...CENTRAL COLORADO...

CITY           SKY/WX    TMP DP  RH WIND       PRES   REMARKS
ASPEN          FAIR      56  54  93 SW5       30.37R
BUENA VISTA    RAIN      61  57  87 SE5       30.41R
COPPER MTN     LGT RAIN  50  45  81 S16       30.67F
BERTHOUD PASS  LGT RAIN  45  32  61 S7        30.70F
COTTONWOOD PAS CLOUDY    59  46  63 SW5       30.54R
GUNNISON       FAIR      60  54  80 N5        30.40R
KREMMLING      CLOUDY    72  55  56 CALM      30.34R
LEADVILLE      FAIR      50  47  89 CALM      30.52F
MONARCH PASS   MOCLDY    50  43  76 W12       30.79R
SALIDA         CLOUDY    62  60  93 CALM      30.45R
SUNLIGHT       MOCLDY    46  46 100 SW10G17   30.60R
WILKERSON PASS DRIZZLE   50  45  81 S6        30.67R
$$

COZ069>075-260500-
...SAN LUIS VALLEY/SANGRE DE CRISTO MOUNTAINS...

CITY           SKY/WX    TMP DP  RH WIND       PRES   REMARKS
ALAMOSA        MOCLDY    63  58  83 NE6       30.36R
DEL NORTE      MOCLDY    58  56  92 E5G16     30.42R
LA VETA PASS   NOT AVBL
SAGUACHE         N/A    N/A N/A N/A MISG        N/A
$$

COZ035-036-038>040-260500-
...NORTHERN COLORADO FRONT RANGE...

CITY           SKY/WX    TMP DP  RH WIND       PRES   REMARKS
DENVER INTL AP CLOUDY    68  59  73 SW8       30.20R
DMNS CITY PARK   N/A     69  59  70 CALM      30.20S
AURORA         MOCLDY    67  61  81 CALM      30.22S
FRONT RANGE AP FAIR      68  63  83 W7        30.22R
ERIE MUNI ARPT LGT RAIN  67  63  85 S3        30.18R
BOULDER MUN AP CLOUDY    70  61  73 S3        30.18S
CENTENNIAL     MOCLDY    68  61  78 CALM      30.23F
BROOMFIELD     LGT RAIN  68  61  77 S3        30.22R
FORT COLLINS   FAIR      69  62  78 N7        30.16R
LONGMONT       FAIR      70  61  74 CALM      30.18R
$$

COZ041-046-047-076>085-087-088-260500-
...PIKES PEAK/PALMER DIVIDE AND SOUTHERN FOOTHILLS...

CITY           SKY/WX    TMP DP  RH WIND       PRES   REMARKS
COLO. SPRINGS  LGT RAIN  70  58  65 NW16G24   30.22S
A. F. ACADEMY  LGT RAIN  64  58  79 N13       30.25F
SCHRIEVER AFB  MOCLDY    67  55  64 N16G23    30.21S
CHEYENNE MTN   LGT RAIN  68  56  64 NW15G22   30.22S
ELLICOTT       MOCLDY   N/A N/A N/A N15       30.17F
FALCON           N/A     65  55  69 NW13G21   30.27F
FORT CARSON    DRIZZLE   67  58  73 NW16      30.19R
LIMON          MOCLDY    65  62  90 NW15      30.15F
MONUMENT HILL  MOCLDY    61  55  82 W7        30.33R
CANON CITY     LGT RAIN  72  63  73 W16       30.18R
WALSENBURG     CLOUDY    73  59  60 NW13G22   30.21R
TRINIDAD       FAIR      75  59  57 W6        30.16R
$$

COZ042>045-048>051-090-091-260500-
...NORTHEAST COLORADO...

CITY           SKY/WX    TMP DP  RH WIND       PRES   REMARKS
GREELEY ARPT   FAIR      70  61  73 NW10      30.13S
AKRON          MOCLDY    72  59  63 W14       30.09R
BURLINGTON     FAIR      77  60  55 NW12      30.07R
WRAY           NOT AVBL
YUMA           FAIR      72  57  60 W6        30.03R
STERLING       FAIR      79  57  47 NW16      30.02R
HOLYOKE        FAIR      77  63  61 CALM      29.99F
FORT MORGAN    FAIR      75  53  45 NW12      30.10R
$$

COZ086-089-092>099-260500-
...SOUTHEAST COLORADO...

CITY           SKY/WX    TMP DP  RH WIND       PRES   REMARKS
PUEBLO         FAIR      75  61  61 NW10      30.11R
LA JUNTA       FAIR      80  59  48 N13       30.05R
LAMAR          FAIR      79  64  60 S14       29.95F
SPRINGFIELD      N/A     80  59  48 S15       30.05R
$$




USA.gov is the U.S. government's official web portal to all federal, state and local government web resources and services.